{"data":{"norad_id":45436,"epoch":"2026-09-19T13:53:03.127488Z","epoch_age_seconds":97951,"freshness":"FRESH","line1":"1 45436U 20020N   26262.57850842  .00000513  00000+0  14125-2 0  9996","line2":"2 45436  87.8967   2.3047 0001567 122.3287 237.7993 13.11417674315047","mean_motion":13.11417674,"eccentricity":0.0001567,"inclination_deg":87.8967,"raan_deg":2.3047,"arg_perigee_deg":122.3287,"mean_anomaly_deg":237.7993,"bstar":0.0014125,"rev_number":31504,"period_min":109.80483400135,"perigee_km":1216.489618923,"apogee_km":1218.8701479343,"semimajor_km":7595.8168834287,"source":"CELESTRAK","updated_at":"2026-09-20T09:00:44.554437Z"}}